Regional Weather Roundup
Issued by NWS

Home | Current Version | Previous Version | Text Only | Print | Product List | Glossary On
Versions: 1 2 3 4 5 6 7 8 9 10 11 12 13 14 15 16 17 18 19 20 21 22 23 24 25 26 27 28 29 30 31 32 33 34 35 36 37 38 39 40 41 42 43 44 45 46 47 48 49 50
000
ASUS45 KREV 020710
RWRNV
NEVADA REGIONAL WEATHER ROUNDUP
NATIONAL WEATHER SERVICE RENO NV
1200 AM PDT TUE SEP 02 2014

NOTE: "FAIR" INDICATES FEW OR NO CLOUDS BELOW 12,000 FEET WITH NO
SIGNIFICANT WEATHER AND/OR OBSTRUCTIONS TO VISIBILITY.

NVZ001-003-004-020800-
WESTERN NEVADA

CITY           SKY/WX    TMP DP  RH WIND       PRES   REMARKS
RENO           CLEAR     71  35  26 CALM      30.01S
CARSON CITY    FAIR      64  32  29 CALM      30.04R
MINDEN           N/A    N/A N/A N/A MISG        N/A
SLIDE MTN        N/A     55  32  41 E8          N/A
PYRAMID LAKE     N/A     75 N/A N/A S5          N/A
FALLON         CLEAR     68  32  26 NW10      29.96S
LOVELOCK       CLEAR     66  30  26 N6        29.97S
HAWTHORNE      CLEAR     73  32  21 CALM      29.99R
$$

NVZ002-CAZ072-073-020800-
NORTHERN AND CENTRAL SIERRA

CITY           SKY/WX    TMP DP  RH WIND       PRES   REMARKS
S. LAKE TAHOE  CLEAR     54  39  57 S3        30.14S
TRUCKEE        CLEAR     52  36  54 CALM      30.13S
SQUAW VLY 8000 NOT AVBL
SUSANVILLE     CLEAR     63  32  31 W6        30.00S
BLUE CANYON    CLEAR     70  36  28 CALM      30.08S
MAMMOTH LAKES  FAIR      59  30  33 W6        30.20S
BRIDGEPORT     FAIR      54  30  40 CALM      30.17S
$$

NVZ030-031-036-020800-
NORTHERN NEVADA

CITY           SKY/WX    TMP DP  RH WIND       PRES   REMARKS
ELKO           CLEAR     54  29  38 E3        30.06S
WINNEMUCCA     CLEAR     56  27  32 SE8       30.02R
WENDOVER       CLEAR     66  37  34 NE3       30.03F
$$

NVZ035-037-020800-
CENTRAL NEVADA

CITY           SKY/WX    TMP DP  RH WIND       PRES   REMARKS
ELY            CLEAR     51  33  50 S7        30.13S
EUREKA           N/A     52  31  44 S3        30.10F
$$

NVZ013-014-020800-
SOUTH CENTRAL NEVADA

CITY           SKY/WX    TMP DP  RH WIND       PRES   REMARKS
TONOPAH        CLEAR     66  22  18 CALM      30.06S
$$

NVZ017-020-022-020800-
SOUTHERN NEVADA

CITY           SKY/WX    TMP DP  RH WIND       PRES   REMARKS
LAS VEGAS      CLEAR     90  31  12 S10       29.78S
N. LAS VEGAS   CLEAR     89  35  14 NW5       29.80F
NELLIS AFB     CLEAR     90  37  15 SE2       29.79S
HENDERSON      CLEAR     86  34  15 S8        29.85S
MERCURY        CLEAR     79  29  16 CALM      29.88F
$$



USA.gov is the U.S. government's official web portal to all federal, state and local government web resources and services.